Location: Caoba
(9.7667°N, 67.4833°W)
Time: 20:12:31
(UTC+00:00)

GOES 2 Rocket - Pass Details

Date: 13 December 2024
Orbit: 569 x 1662 km, 28.4° (Epoch: 14 January)

Event Time Altitude Azimuth Distance (km) Brightness Sun altitude
Rises 22:58:38 0° 237° (WSW) 4,892 9.5 -11.6°
Reaches altitude 10° 23:02:00 10° 236° (SW) 3,883 8.5 -12.4°
Maximum altitude 23:12:22 79° 151° (SSE) 1,519 4.9 -14.7°
Enters shadow 23:18:39 22° 67° (ENE) 2,583 5.5 -16.2°
